CSN6959 ZSAM-ZSPD

Flight info

Callsign CSN6959
Flight time N/A
Altitude 37100
Route DOVPU5U DOVPU W643 FOC W644 ANLUD B221 SHZ W58 BK BK83A
Aircraft A320/L-SDE3FGHIRWY/LB1

Departure

Time 2026-04-30 13:03
Airport Xiamen Gaoqi International Airport (ZSAM)

Arrival

Time N/A
Airport Shanghai Pudong International Airport (ZSPD)
Time Latitude Longitude Altitude Speed Heading
2026-04-30 12:45 24.53989 118.12862 45 ft 0 kts 142°
2026-04-30 12:54 24.54009 118.12846 40 ft 4 kts 151°
2026-04-30 12:54 24.54034 118.12834 43 ft 4 kts 167°
2026-04-30 12:54 24.54060 118.12832 42 ft 4 kts 196°
2026-04-30 12:55 24.54077 118.12842 42 ft 1 kts 229°
2026-04-30 12:55 24.54065 118.12826 43 ft 3 kts 233°
2026-04-30 12:55 24.54064 118.12824 43 ft 0 kts 233°
2026-04-30 12:57 24.54042 118.12793 45 ft 14 kts 233°
2026-04-30 12:57 24.53983 118.12710 42 ft 15 kts 231°
2026-04-30 12:58 24.53917 118.12617 45 ft 15 kts 232°
2026-04-30 12:58 24.53857 118.12532 45 ft 13 kts 232°
2026-04-30 12:58 24.53804 118.12456 49 ft 12 kts 232°
2026-04-30 12:58 24.53758 118.12391 45 ft 10 kts 232°
2026-04-30 12:59 24.53715 118.12330 45 ft 11 kts 232°
2026-04-30 12:59 24.53705 118.12258 45 ft 9 kts 300°
2026-04-30 12:59 24.53719 118.12200 45 ft 8 kts 250°
2026-04-30 12:59 24.53690 118.12157 45 ft 8 kts 230°
2026-04-30 13:00 24.53632 118.12077 43 ft 14 kts 231°
2026-04-30 13:00 24.53628 118.11989 44 ft 12 kts 283°
2026-04-30 13:00 24.53598 118.11916 44 ft 10 kts 231°
2026-04-30 13:00 24.53558 118.11861 43 ft 9 kts 232°
2026-04-30 13:01 24.53489 118.11764 43 ft 20 kts 232°
2026-04-30 13:01 24.53468 118.11669 42 ft 12 kts 310°
2026-04-30 13:01 24.53495 118.11648 44 ft 0 kts 325°
2026-04-30 13:02 24.53504 118.11641 42 ft 7 kts 325°
2026-04-30 13:02 24.53542 118.11609 45 ft 7 kts 323°
2026-04-30 13:02 24.53625 118.11664 44 ft 24 kts 54°
2026-04-30 13:02 24.53874 118.12014 40 ft 100 kts 52°
2026-04-30 13:03 24.54429 118.12833 58 ft 165 kts 57°
2026-04-30 13:03 24.55154 118.13914 645 ft 180 kts 52°
2026-04-30 13:03 24.55928 118.14988 1611 ft 181 kts 52°
2026-04-30 13:03 24.56746 118.16114 2097 ft 199 kts 51°
2026-04-30 13:04 24.57662 118.17372 2451 ft 223 kts 51°
2026-04-30 13:04 24.58678 118.18775 2872 ft 245 kts 51°
2026-04-30 13:04 24.59763 118.20279 3524 ft 255 kts 50°
2026-04-30 13:04 24.60874 118.21826 4322 ft 261 kts 49°
2026-04-30 13:05 24.62239 118.23152 5056 ft 268 kts 30°
2026-04-30 13:05 24.63865 118.24219 5772 ft 276 kts 29°
2026-04-30 13:05 24.65515 118.25276 6549 ft 281 kts 28°
2026-04-30 13:06 24.68943 118.27471 8045 ft 289 kts 28°
2026-04-30 13:06 24.70695 118.28595 8808 ft 294 kts 28°
2026-04-30 13:06 24.72470 118.29738 9569 ft 298 kts 28°
2026-04-30 13:06 24.74269 118.30899 10268 ft 303 kts 28°
2026-04-30 13:07 24.76147 118.32111 10477 ft 324 kts 28°
2026-04-30 13:07 24.78160 118.33409 10672 ft 345 kts 28°
2026-04-30 13:07 24.80231 118.34750 11186 ft 353 kts 28°
2026-04-30 13:07 24.82363 118.36132 11798 ft 358 kts 28°
2026-04-30 13:08 24.84519 118.37532 12402 ft 363 kts 28°
2026-04-30 13:08 24.86706 118.38951 13036 ft 367 kts 28°
2026-04-30 13:08 24.88915 118.40382 13643 ft 371 kts 27°
2026-04-30 13:08 24.91149 118.41832 14197 ft 374 kts 28°
2026-04-30 13:09 24.93295 118.43496 14716 ft 382 kts 38°
2026-04-30 13:09 24.95168 118.45546 15222 ft 387 kts 44°
2026-04-30 13:09 24.97037 118.47696 15748 ft 390 kts 43°
2026-04-30 13:09 24.98927 118.49863 16257 ft 394 kts 43°
2026-04-30 13:10 25.00836 118.52052 16771 ft 398 kts 43°
2026-04-30 13:10 25.02760 118.54261 17275 ft 401 kts 43°
2026-04-30 13:10 25.04702 118.56496 17772 ft 405 kts 43°
2026-04-30 13:10 25.06658 118.58748 18259 ft 409 kts 43°
2026-04-30 13:11 25.08604 118.61058 18694 ft 414 kts 48°
2026-04-30 13:11 25.10227 118.63651 19137 ft 420 kts 58°
2026-04-30 13:11 25.11615 118.66506 19546 ft 424 kts 59°
2026-04-30 13:11 25.13006 118.69390 19988 ft 427 kts 59°
2026-04-30 13:12 25.14406 118.72295 20432 ft 430 kts 59°
2026-04-30 13:12 25.15819 118.75223 20874 ft 434 kts 59°
2026-04-30 13:12 25.17241 118.78171 21324 ft 437 kts 59°
2026-04-30 13:13 25.20116 118.84128 22211 ft 442 kts 59°
2026-04-30 13:13 25.21568 118.87136 22615 ft 446 kts 58°
2026-04-30 13:13 25.24498 118.93217 23472 ft 451 kts 58°
2026-04-30 13:14 25.26022 118.96199 23838 ft 451 kts 52°
2026-04-30 13:14 25.27924 118.98939 24167 ft 448 kts 43°
2026-04-30 13:14 25.32232 119.03944 24825 ft 452 kts 42°
2026-04-30 13:15 25.34404 119.06468 25155 ft 454 kts 42°
2026-04-30 13:15 25.38778 119.11561 25780 ft 459 kts 42°
2026-04-30 13:15 25.40980 119.14129 26086 ft 461 kts 42°
2026-04-30 13:16 25.43164 119.16678 26387 ft 464 kts 42°
2026-04-30 13:16 25.45391 119.19277 26685 ft 466 kts 43°
2026-04-30 13:16 25.47625 119.21888 26990 ft 468 kts 43°
2026-04-30 13:17 25.52127 119.27153 27571 ft 474 kts 42°
2026-04-30 13:17 25.54398 119.29811 27847 ft 476 kts 43°
2026-04-30 13:17 25.58967 119.35180 28416 ft 481 kts 43°
2026-04-30 13:18 25.61261 119.37892 28692 ft 484 kts 43°
2026-04-30 13:18 25.65840 119.43329 29222 ft 488 kts 43°
2026-04-30 13:18 25.68162 119.46082 29488 ft 490 kts 43°
2026-04-30 13:19 25.70493 119.48849 29717 ft 492 kts 43°
2026-04-30 13:19 25.72836 119.51631 29971 ft 495 kts 43°
2026-04-30 13:19 25.75201 119.54423 30185 ft 497 kts 41°
2026-04-30 13:19 25.77770 119.56952 30368 ft 494 kts 32°
2026-04-30 13:20 25.80623 119.59031 30532 ft 489 kts 23°
2026-04-30 13:20 25.83644 119.60762 30735 ft 488 kts 21°
2026-04-30 13:20 25.86629 119.62457 30934 ft 490 kts 22°
2026-04-30 13:20 25.89667 119.64191 31137 ft 491 kts 22°
2026-04-30 13:21 25.92694 119.65926 31412 ft 490 kts 22°
2026-04-30 13:21 25.95723 119.67651 31705 ft 489 kts 21°
2026-04-30 13:21 25.98753 119.69365 31961 ft 488 kts 21°
2026-04-30 13:22 26.04842 119.72673 32463 ft 483 kts 14°
2026-04-30 13:22 26.08018 119.73761 32727 ft 474 kts
2026-04-30 13:22 26.14406 119.74304 33245 ft 457 kts 349°
2026-04-30 13:23 26.17575 119.74106 33506 ft 456 kts 350°
2026-04-30 13:23 26.23906 119.73716 34097 ft 454 kts 349°
2026-04-30 13:24 26.30211 119.73327 34574 ft 453 kts 349°
2026-04-30 13:24 26.36495 119.72939 35012 ft 453 kts 349°
2026-04-30 13:25 26.42764 119.72628 35399 ft 458 kts 355°
2026-04-30 13:25 26.49105 119.74137 35812 ft 480 kts 16°
2026-04-30 13:26 26.57852 119.79932 36231 ft 490 kts 25°
2026-04-30 13:26 26.63627 119.84003 36526 ft 491 kts 26°
2026-04-30 13:27 26.69377 119.88050 36808 ft 492 kts 26°
2026-04-30 13:28 26.78064 119.94177 37237 ft 492 kts 25°
2026-04-30 13:28 26.86741 120.00312 37255 ft 491 kts 25°
2026-04-30 13:29 26.98265 120.08464 37262 ft 492 kts 25°
2026-04-30 13:31 27.12694 120.18734 37252 ft 493 kts 25°
2026-04-30 13:32 27.27236 120.28986 37274 ft 494 kts 24°
2026-04-30 13:33 27.38873 120.37231 37300 ft 494 kts 24°
2026-04-30 13:34 27.47557 120.43397 37270 ft 494 kts 24°
2026-04-30 13:35 27.59188 120.51693 37256 ft 495 kts 24°
2026-04-30 13:36 27.70798 120.59977 37261 ft 494 kts 21°
2026-04-30 13:36 27.73823 120.61697 37258 ft 482 kts 12°
2026-04-30 13:36 27.80134 120.63494 37254 ft 458 kts 355°
2026-04-30 13:37 27.89570 120.64347 37277 ft 455 kts 354°
2026-04-30 13:38 27.99019 120.65233 37269 ft 454 kts 354°
2026-04-30 13:39 28.11620 120.66452 37280 ft 454 kts 354°
2026-04-30 13:40 28.21018 120.67381 37271 ft 454 kts 354°
2026-04-30 13:40 28.27306 120.67998 37269 ft 453 kts 354°
2026-04-30 13:41 28.33587 120.68607 37310 ft 453 kts 353°
2026-04-30 13:41 28.39868 120.69226 37295 ft 453 kts 353°
2026-04-30 13:42 28.46094 120.69844 37285 ft 452 kts 353°
2026-04-30 13:42 28.55489 120.70791 37284 ft 452 kts 353°
2026-04-30 13:43 28.61727 120.71430 37269 ft 447 kts 353°
2026-04-30 13:43 28.67918 120.72054 37265 ft 446 kts 353°
2026-04-30 13:44 28.74103 120.72686 37262 ft 447 kts 353°
2026-04-30 13:44 28.80258 120.73371 37261 ft 447 kts 353°
2026-04-30 13:45 28.89492 120.74398 37273 ft 442 kts 352°
2026-04-30 13:46 28.95601 120.75020 37272 ft 440 kts 352°
2026-04-30 13:46 29.01709 120.75629 37273 ft 441 kts 352°
2026-04-30 13:47 29.07769 120.76253 37296 ft 439 kts 351°
2026-04-30 13:47 29.13797 120.76883 37247 ft 433 kts 351°
2026-04-30 13:48 29.19804 120.77498 37249 ft 434 kts 351°
2026-04-30 13:48 29.25814 120.78118 37248 ft 434 kts 351°
2026-04-30 13:49 29.31832 120.78738 37303 ft 433 kts 351°
2026-04-30 13:49 29.37761 120.79358 37251 ft 429 kts 350°
2026-04-30 13:50 29.43707 120.79981 37248 ft 429 kts 350°
2026-04-30 13:50 29.52632 120.80911 37244 ft 432 kts 352°
2026-04-30 13:51 29.55639 120.81633 37301 ft 453 kts
2026-04-30 13:51 29.58605 120.83079 37263 ft 475 kts 16°
2026-04-30 13:51 29.61339 120.85260 37244 ft 498 kts 29°
2026-04-30 13:51 29.63756 120.88221 37236 ft 520 kts 43°
2026-04-30 13:52 29.67812 120.95222 37207 ft 527 kts 46°
2026-04-30 13:52 29.69836 120.98759 36272 ft 533 kts 46°
2026-04-30 13:52 29.71886 121.02336 34904 ft 538 kts 46°
2026-04-30 13:53 29.73955 121.05948 33592 ft 542 kts 46°
2026-04-30 13:53 29.76029 121.09575 32118 ft 543 kts 46°
2026-04-30 13:53 29.78068 121.13151 30739 ft 541 kts 46°
2026-04-30 13:53 29.80122 121.16761 29258 ft 537 kts 47°
2026-04-30 13:54 29.82158 121.20342 27772 ft 532 kts 47°
2026-04-30 13:54 29.84173 121.23890 26355 ft 526 kts 47°
2026-04-30 13:54 29.86161 121.27395 25042 ft 519 kts 48°
2026-04-30 13:54 29.88193 121.30774 23796 ft 503 kts 41°
2026-04-30 13:55 29.90586 121.33570 22604 ft 477 kts 29°
2026-04-30 13:55 29.93199 121.35649 22251 ft 435 kts 19°
2026-04-30 13:55 29.95732 121.37271 21814 ft 412 kts 18°
2026-04-30 13:55 29.98183 121.38837 21374 ft 394 kts 18°
2026-04-30 13:56 30.00530 121.40327 20939 ft 377 kts 17°
2026-04-30 13:56 30.02785 121.41748 20528 ft 362 kts 17°
2026-04-30 13:56 30.04958 121.43107 20115 ft 348 kts 17°
2026-04-30 13:56 30.07054 121.44413 19719 ft 337 kts 17°
2026-04-30 13:57 30.09081 121.45678 19334 ft 326 kts 17°
2026-04-30 13:57 30.11044 121.46904 18951 ft 316 kts 17°
2026-04-30 13:57 30.12950 121.48094 18591 ft 307 kts 17°
2026-04-30 13:57 30.14775 121.49238 18206 ft 298 kts 17°
2026-04-30 13:58 30.16572 121.50367 17834 ft 289 kts 17°
2026-04-30 13:58 30.20061 121.52549 17151 ft 283 kts 17°
2026-04-30 13:58 30.21795 121.53628 16829 ft 284 kts 17°
2026-04-30 13:59 30.23535 121.54712 16487 ft 284 kts 17°
2026-04-30 13:59 30.25278 121.55802 16116 ft 286 kts 17°
2026-04-30 13:59 30.27027 121.56909 15754 ft 288 kts 18°
2026-04-30 13:59 30.28781 121.58037 15383 ft 290 kts 19°
2026-04-30 14:00 30.30523 121.59168 15019 ft 292 kts 19°
2026-04-30 14:00 30.34086 121.61485 14265 ft 296 kts 19°
2026-04-30 14:00 30.35893 121.62656 13859 ft 298 kts 20°
2026-04-30 14:01 30.37701 121.63843 13451 ft 300 kts 21°
2026-04-30 14:01 30.39499 121.65081 13040 ft 301 kts 22°
2026-04-30 14:01 30.41286 121.66345 12646 ft 301 kts 23°
2026-04-30 14:01 30.43076 121.67620 12237 ft 302 kts 23°
2026-04-30 14:02 30.44864 121.68894 11819 ft 302 kts 23°
2026-04-30 14:02 30.46628 121.70148 11414 ft 302 kts 24°
2026-04-30 14:02 30.48420 121.71417 10995 ft 302 kts 24°
2026-04-30 14:02 30.50214 121.72684 10578 ft 302 kts 24°
2026-04-30 14:03 30.51987 121.73938 10416 ft 292 kts 24°
2026-04-30 14:03 30.53688 121.75145 10334 ft 281 kts 24°
2026-04-30 14:03 30.55328 121.76306 10173 ft 272 kts 24°
2026-04-30 14:03 30.56955 121.77343 9963 ft 261 kts 15°
2026-04-30 14:04 30.58649 121.77945 9758 ft 247 kts
2026-04-30 14:04 30.60285 121.78380 9686 ft 237 kts
2026-04-30 14:04 30.61862 121.78808 9598 ft 235 kts
2026-04-30 14:04 30.63450 121.79239 9514 ft 234 kts
2026-04-30 14:05 30.65034 121.79669 9414 ft 234 kts
2026-04-30 14:05 30.66618 121.80099 9309 ft 233 kts
2026-04-30 14:05 30.68196 121.80528 9221 ft 233 kts
2026-04-30 14:05 30.69770 121.80958 9135 ft 232 kts
2026-04-30 14:06 30.71342 121.81386 9043 ft 232 kts
2026-04-30 14:06 30.74453 121.82233 8884 ft 231 kts
2026-04-30 14:07 30.77597 121.83090 8695 ft 232 kts
2026-04-30 14:07 30.79181 121.83520 8603 ft 232 kts
2026-04-30 14:07 30.80736 121.83943 8511 ft 231 kts
2026-04-30 14:08 30.83860 121.84797 8336 ft 230 kts
2026-04-30 14:08 30.84894 121.85079 8278 ft 230 kts
2026-04-30 14:08 30.88447 121.86051 8092 ft 229 kts
2026-04-30 14:09 30.89995 121.86472 8004 ft 229 kts
2026-04-30 14:09 30.91545 121.86892 7918 ft 228 kts
2026-04-30 14:09 30.94514 121.88242 7741 ft 234 kts 25°
2026-04-30 14:10 30.95912 121.89203 7654 ft 233 kts 25°
2026-04-30 14:10 30.97304 121.90158 7562 ft 231 kts 25°
2026-04-30 14:10 30.98683 121.91103 7476 ft 230 kts 25°
2026-04-30 14:10 31.00058 121.92048 7389 ft 229 kts 26°
2026-04-30 14:11 31.00965 121.92672 7327 ft 228 kts 26°
2026-04-30 14:11 31.02331 121.93610 7236 ft 227 kts 26°
2026-04-30 14:11 31.04136 121.94845 7126 ft 227 kts 26°
2026-04-30 14:11 31.05493 121.95771 7039 ft 226 kts 26°
2026-04-30 14:12 31.06877 121.96607 6968 ft 222 kts 15°
2026-04-30 14:12 31.08367 121.96971 6878 ft 218 kts
2026-04-30 14:12 31.09366 121.96933 6771 ft 216 kts 350°
2026-04-30 14:12 31.10812 121.96496 6612 ft 215 kts 341°
2026-04-30 14:13 31.12233 121.95958 6440 ft 214 kts 342°
2026-04-30 14:13 31.14132 121.95246 6221 ft 215 kts 342°
2026-04-30 14:13 31.15534 121.94721 6068 ft 215 kts 342°
2026-04-30 14:13 31.16958 121.94186 5911 ft 215 kts 342°
2026-04-30 14:14 31.18381 121.93651 5758 ft 215 kts 342°
2026-04-30 14:14 31.19324 121.93298 5656 ft 215 kts 341°
2026-04-30 14:14 31.20944 121.92692 5479 ft 216 kts 341°
2026-04-30 14:14 31.22354 121.92163 5325 ft 216 kts 341°
2026-04-30 14:15 31.23785 121.91627 5168 ft 216 kts 341°
2026-04-30 14:15 31.25217 121.91087 5006 ft 216 kts 341°
2026-04-30 14:15 31.26570 121.90576 4856 ft 216 kts 341°
2026-04-30 14:15 31.28004 121.90035 4694 ft 216 kts 341°
2026-04-30 14:16 31.29436 121.89493 4542 ft 217 kts 341°
2026-04-30 14:16 31.34098 121.87730 4032 ft 217 kts 340°
2026-04-30 14:17 31.35049 121.87372 3937 ft 217 kts 340°
2026-04-30 14:17 31.36487 121.86832 3777 ft 217 kts 340°
2026-04-30 14:17 31.38392 121.86113 3571 ft 217 kts 340°
2026-04-30 14:17 31.39824 121.85549 3434 ft 217 kts 334°
2026-04-30 14:18 31.40963 121.84457 3333 ft 213 kts 302°
2026-04-30 14:18 31.41416 121.82826 3233 ft 214 kts 271°
2026-04-30 14:18 31.40542 121.80421 2907 ft 212 kts 222°
2026-04-30 14:19 31.38138 121.78619 2546 ft 196 kts 213°